Probability
0 0 0 0 0 0 0 0 0 0 0 0 0 0 0 0 0 0 0 0 0 0 0 0 0 0 0 0 3 3 6 10 6 3 3 16 19 23
0 0 0 0 0 0 0 0 0 0 0 0 0 0 0 0 0 0 0 0 0 0 0 0 0 0 0 0 0 0 0 0 0 0 0 0 3 10
0 0 0 0 0 0 0 0 0 0 0 0 0 0 0 0 0 0 0 0 0 0 0 0 0 0 0 0 0 0 0 0 0 0 0 0 0 0
0 0 0 0 0 0 0 0 0 0 0 0 0 0 0 0 0 0 0 0 0 0 0 0 0 0 0 0 0 0 0 0 0 0 0 0 0 0
0 0 0 0 0 0 0 0 0 0 0 0 0 0 0 0 0 0 0 0 0 0 0 0 0 0 0 0 0 0 0 0 0 0 0 0 0 0
0 0 0 0 0 0 0 0 0 0 0 0 0 0 0 0 0 0 0 0 0 0 0 0 0 0 0 0 0 0 0 0 0 0 0 0 0 0
0 0 0 0 0 0 0 0 0 0 0 0 0 0 0 0 0 0 0 0 0 0 0 0 0 0 0 0 0 0 0 0 0 0 0 0 0 0
0 0 0 0 0 0 0 0 0 0 0 0 0 0 0 0 0 0 0 0 0 0 0 0 0 0 0 0 0 0 0 0 0 0 0 0 0 0
0 0 0 0 0 0 0 0 0 0 0 0 0 0 0 0 0 0 0 0 0 0 0 0 0 0 0 0 0 0 0 0 0 0 0 0 0 0
0 0 0 0 0 0 0 0 0 0 0 0 0 0 0 0 0 0 0 0 0 0 0 0 0 0 0 0 0 0 0 0 0 0 0 0 0 0
0 0 0 0 0 0 0 0 0 0 0 0 0 0 0 0 0 0 0 0 0 0 0 0 0 0 0 0 0 0 0 0 0 0 0 0 0 0
0 0 0 0 0 0 0 0 0 0 0 0 0 0 0 0 0 0 0 0 0 0 0 0 0 0 0 0 0 0 0 0 0 0 0 0 0 0
0 0 0 0 0 0 0 0 0 0 0 0 0 0 0 0 0 0 0 0 0 0 0 0 0 0 0 0 0 0 0 0 0 0 0 0 0 0
0 0 0 0 0 0 0 0 0 0 0 0 0 0 0 0 0 0 0 0 0 0 0 0 0 0 0 0 0 0 0 0 0 0 0 0 0 0
0 0 0 0 0 0 0 0 0 0 0 0 0 0 0 0 0 0 0 0 0 0 0 0 0 0 0 0 0 0 0 0 0 0 0 0 0 0
0 0 0 0 0 0 0 0 0 0 0 0 0 0 0 0 0 0 0 0 0 0 0 0 0 0 0 0 0 0 0 0 0 0 0 0 0 0
0 0 0 0 0 0 0 0 0 0 0 0 0 0 0 0 0 0 0 0 0 0 0 0 0 0 0 0 0 0 0 0 0 0 0 0 0 0
0 0 0 0 0 0 0 0 0 0 0 0 0 0 0 0 0 0 0 0 0 0 0 0 0 0 0 0 0 0 0 0 0 0 0 0 0 0
0 0 0 0 0 0 0 0 0 0 0 0 0 0 0 0 0 0 0 0 0 0 0 0 0 0 0 0 0 0 0 0 0 0 0 0 0 0
0 0 0 0 0 0 0 0 0 0 0 0 0 0 0 0 0 0 0 0 0 0 0 0 0 0 0 0 0 0 0 0 0 0 0 0 0 0
0 0 0 0 0 0 0 0 0 0 0 0 0 0 0 0 0 0 0 0 0 0 0 0 0 0 0 0 0 0 0 0 0 0 0 0 0 0
0 0 0 0 0 0 0 0 0 0 0 0 0 0 0 0 0 0 0 0 0 0 0 0 0 0 0 0 0 0 0 0 0 0 0 0 0 0
0 0 0 0 0 0 0 0 0 0 0 0 0 0 0 0 0 0 0 0 0 0 0 0 0 0 0 0 0 0 0 0 0 0 0 0 0 0
Height
5833 5832 5830 5829 5828 5827 5826 5826 5826 5826 5826 5826 5827 5828 5830 5832 5834 5836 5838 5840 5842 5845 5847 5849 5852 5854 5856 5859 5861 5864 5866 5868 5871 5873 5875 5877 5879 5881
5834 5832 5831 5829 5828 5827 5826 5825 5825 5825 5824 5825 5825 5826 5827 5829 5831 5832 5834 5836 5838 5841 5843 5845 5848 5850 5852 5854 5857 5859 5861 5863 5866 5868 5870 5872 5873 5875
5834 5832 5831 5829 5828 5827 5826 5825 5824 5824 5824 5823 5823 5824 5825 5826 5827 5829 5831 5832 5834 5836 5839 5841 5843 5845 5848 5849 5852 5854 5856 5858 5860 5862 5864 5865 5867 5870
5833 5832 5830 5829 5827 5826 5825 5824 5823 5823 5822 5822 5821 5821 5822 5823 5824 5825 5827 5828 5830 5832 5834 5836 5838 5840 5842 5844 5846 5848 5850 5852 5854 5856 5858 5860 5862 5863
5833 5831 5829 5828 5826 5825 5823 5822 5821 5821 5820 5819 5819 5818 5819 5819 5820 5821 5822 5824 5825 5827 5828 5830 5832 5834 5836 5838 5840 5841 5843 5845 5847 5849 5851 5853 5855 5856
5831 5829 5828 5826 5824 5823 5822 5820 5819 5818 5817 5816 5816 5815 5815 5815 5816 5817 5817 5818 5820 5821 5823 5824 5826 5827 5829 5831 5833 5834 5836 5838 5840 5842 5844 5845 5847 5849
5829 5827 5825 5824 5822 5820 5819 5817 5816 5815 5814 5813 5812 5812 5811 5811 5811 5812 5812 5813 5814 5815 5816 5818 5819 5821 5822 5824 5825 5827 5828 5830 5832 5834 5835 5837 5839 5841
5825 5824 5822 5820 5819 5817 5815 5814 5812 5811 5810 5809 5808 5807 5806 5806 5805 5805 5806 5806 5807 5808 5809 5810 5811 5813 5814 5815 5817 5818 5820 5821 5823 5825 5826 5828 5830 5832
5821 5819 5817 5816 5814 5812 5810 5809 5807 5806 5804 5803 5802 5801 5800 5799 5798 5798 5798 5798 5799 5799 5800 5801 5802 5803 5805 5806 5807 5808 5810 5812 5813 5815 5816 5818 5820 5822
5815 5813 5812 5810 5808 5806 5805 5803 5801 5799 5797 5796 5795 5793 5791 5790 5789 5789 5788 5789 5789 5789 5790 5791 5792 5793 5794 5795 5796 5798 5799 5801 5802 5804 5806 5808 5809 5811
5808 5807 5805 5803 5801 5799 5798 5796 5794 5791 5789 5787 5785 5783 5781 5779 5778 5777 5777 5777 5778 5778 5778 5779 5780 5781 5783 5784 5785 5786 5787 5789 5791 5793 5794 5796 5798 5800
5800 5798 5797 5795 5793 5791 5789 5787 5785 5782 5780 5777 5775 5772 5770 5768 5766 5765 5764 5764 5764 5765 5766 5766 5767 5767 5770 5772 5773 5774 5775 5776 5778 5779 5781 5783 5785 5787
5791 5789 5787 5785 5783 5780 5778 5776 5773 5771 5769 5766 5763 5760 5757 5755 5753 5751 5750 5750 5750 5751 5751 5751 5752 5753 5754 5758 5759 5760 5761 5763 5764 5766 5768 5770 5772 5775
5781 5779 5776 5774 5771 5769 5766 5763 5760 5758 5755 5753 5750 5747 5744 5742 5739 5737 5736 5735 5734 5735 5735 5735 5736 5737 5739 5741 5744 5746 5747 5748 5750 5752 5754 5756 5758 5761
5769 5767 5764 5762 5759 5756 5753 5749 5746 5743 5740 5738 5735 5733 5730 5727 5725 5723 5721 5720 5719 5718 5718 5718 5719 5720 5722 5725 5728 5730 5732 5734 5735 5737 5740 5742 5745 5747
5756 5754 5751 5748 5745 5742 5739 5735 5731 5728 5725 5723 5720 5717 5714 5712 5709 5707 5705 5704 5703 5703 5702 5701 5702 5703 5705 5708 5710 5713 5716 5718 5721 5722 5725 5727 5730 5733
5743 5740 5737 5734 5731 5728 5724 5720 5717 5713 5710 5707 5704 5701 5698 5696 5693 5691 5689 5687 5686 5687 5687 5686 5685 5686 5688 5691 5694 5696 5699 5702 5705 5707 5710 5713 5716 5719
5729 5726 5723 5719 5716 5712 5709 5705 5701 5697 5693 5690 5686 5683 5681 5679 5676 5674 5672 5670 5669 5669 5669 5669 5669 5670 5672 5674 5677 5679 5682 5685 5688 5691 5694 5698 5702 5705
5714 5710 5707 5703 5699 5695 5691 5687 5684 5680 5676 5672 5669 5666 5663 5660 5658 5656 5654 5652 5651 5651 5651 5651 5651 5652 5654 5658 5661 5662 5665 5668 5671 5675 5679 5683 5687 5691
5698 5694 5690 5685 5681 5677 5673 5669 5665 5662 5658 5654 5650 5647 5644 5641 5639 5637 5635 5634 5633 5633 5633 5634 5634 5635 5637 5640 5644 5647 5649 5652 5655 5659 5663 5667 5672 5675
5682 5677 5672 5668 5663 5659 5655 5651 5647 5643 5639 5635 5632 5628 5625 5622 5620 5618 5617 5616 5615 5615 5616 5617 5617 5617 5618 5621 5625 5630 5633 5636 5639 5643 5647 5651 5656 5660
5664 5660 5655 5650 5646 5641 5637 5633 5629 5625 5621 5617 5613 5610 5607 5604 5602 5600 5598 5597 5597 5597 5597 5598 5598 5599 5600 5603 5607 5612 5616 5620 5623 5626 5631 5636 5640 5645
5647 5642 5638 5633 5628 5624 5620 5615 5611 5607 5603 5599 5596 5593 5589 5587 5584 5582 5581 5580 5579 5579 5579 5580 5581 5581 5583 5586 5589 5594 5598 5602 5606 5611 5616 5621 5626 5631
Wind_Speed
11 11 11 9 8 7 6 6 5 5 6 6 8 10 13 14 16 17 18 19 20 20 21 22 22 23 24 25 24 24 25 26 26 25 25 25 25 26
12 12 11 10 9 8 7 6 6 5 6 7 8 10 12 14 16 17 18 19 20 21 22 22 23 24 25 25 25 25 26 27 27 27 26 27 27 26
11 12 12 11 10 9 8 7 7 7 7 7 9 10 11 13 16 17 19 20 21 22 23 24 24 24 26 26 26 27 28 28 28 28 28 28 28 28
12 12 12 12 11 11 10 10 9 9 8 9 9 10 12 13 15 17 19 20 21 23 24 25 25 26 26 27 27 27 28 28 29 30 30 29 29 29
12 13 13 13 13 12 12 11 11 11 11 11 11 11 12 14 15 17 19 20 22 23 24 25 26 26 27 28 29 29 29 29 30 30 31 31 30 30
14 14 14 14 14 14 14 14 13 13 13 13 13 13 14 15 16 18 19 21 22 23 24 25 27 27 28 29 30 31 31 31 31 32 33 33 32 32
16 16 16 16 16 16 16 16 16 16 16 16 16 16 17 18 19 20 21 22 24 25 26 27 28 29 30 31 32 32 32 33 33 33 34 34 34 34
18 18 18 18 18 18 18 19 19 19 19 20 20 20 20 21 22 23 23 24 25 27 29 30 31 31 32 33 33 34 35 35 35 35 36 36 36 36
21 21 21 21 21 21 22 22 22 22 23 23 23 23 24 24 25 26 27 27 28 29 30 32 33 34 34 35 35 35 36 36 37 37 38 38 38 38
23 23 24 24 24 24 25 25 26 26 26 26 27 28 29 29 29 30 31 31 32 32 34 34 35 36 37 37 37 38 39 39 39 39 39 40 40 40
26 27 27 27 27 28 28 28 29 29 30 31 31 32 32 33 33 33 34 35 35 35 36 37 38 39 39 39 39 40 41 41 41 42 42 41 41 42
29 30 30 30 31 31 32 32 33 33 34 34 35 36 36 36 37 37 37 38 38 38 39 40 41 42 42 42 43 43 43 44 44 43 43 43 43 43
32 32 33 34 35 35 36 36 37 37 38 38 39 39 40 40 40 40 40 40 41 41 42 43 43 44 44 44 44 44 45 45 46 45 45 45 44 44
35 36 37 37 38 39 40 41 41 41 41 41 41 41 41 41 42 42 43 43 44 44 44 45 46 46 46 46 46 45 46 46 46 46 46 46 46 45
38 39 40 41 41 42 43 44 44 44 44 44 44 43 43 44 44 44 44 45 45 46 46 46 47 47 48 47 46 46 46 46 47 47 47 47 47 47
42 42 43 44 45 45 46 46 46 46 46 46 46 46 46 46 46 46 46 46 46 46 46 47 48 48 48 48 48 48 47 47 46 47 47 46 47 47
44 45 46 47 47 47 48 48 48 49 49 49 49 48 48 48 47 47 47 48 48 47 47 48 48 49 49 49 49 48 48 48 48 48 48 48 47 47
47 47 49 50 50 50 50 51 51 51 51 51 51 51 50 50 50 49 49 49 49 49 49 49 49 50 50 50 49 49 49 48 49 49 49 49 48 47
50 51 51 52 53 53 53 53 53 53 53 53 52 52 52 52 51 51 51 50 50 50 50 50 50 50 51 50 49 49 50 49 49 49 49 49 48 47
54 54 55 55 55 55 54 54 54 54 53 53 52 52 52 52 52 52 51 51 50 50 50 51 51 51 51 50 49 48 49 50 50 50 49 49 48 48
56 56 56 57 56 55 55 54 54 54 54 53 53 53 53 53 52 51 51 50 50 50 50 51 51 51 51 51 51 50 50 50 50 49 49 49 49 49
57 57 57 56 55 55 55 54 54 54 54 53 53 52 52 52 51 51 50 50 50 50 50 50 50 50 50 51 50 51 50 50 50 49 49 49 49 48
57 56 56 55 55 54 54 54 54 53 53 53 52 51 51 50 49 49 49 49 49 48 48 48 49 49 49 49 49 49 49 49 49 49 48 48 47 47
Wind_Direction
2 2 1 1 360 355 351 341 322 300 284 263 248 238 233 230 230 230 230 230 230 230 230 230 231 232 231 231 233 233 232 232 233 236 239 240 239 240
1 1 2 1 357 354 349 341 330 314 293 275 260 249 243 236 235 235 235 234 233 233 234 235 235 235 234 234 235 235 235 235 236 239 240 241 242 242
355 356 358 356 352 349 344 334 324 313 300 285 270 259 252 245 241 239 239 237 236 236 237 237 238 238 238 239 238 239 238 238 239 240 240 242 242 243
347 347 347 347 344 340 335 328 319 311 302 292 281 272 263 255 250 246 242 241 240 242 241 240 241 242 242 243 243 241 241 241 242 243 243 244 245 246
340 340 339 338 337 334 330 324 318 311 304 296 286 279 271 263 258 255 250 247 246 246 245 244 244 245 245 245 245 244 244 244 245 246 247 246 248 248
331 331 331 331 329 327 325 321 315 310 303 299 292 284 278 270 263 259 255 253 251 250 249 247 247 248 248 247 246 246 246 247 248 248 248 248 249 250
321 321 321 322 321 319 317 316 313 308 303 299 294 290 282 276 270 264 261 258 255 253 253 252 251 250 251 250 249 249 249 249 250 249 249 249 249 250
312 312 313 313 313 311 309 308 306 303 301 298 295 293 286 279 274 269 265 262 260 257 256 255 255 254 253 253 253 252 251 250 251 251 250 250 250 251
306 305 305 306 306 306 304 302 301 299 298 296 294 292 287 281 277 273 268 265 262 261 259 258 257 256 255 254 255 254 253 253 252 252 252 251 252 252
300 300 300 300 301 301 301 300 300 298 296 294 293 291 289 283 279 276 272 269 266 264 261 260 259 259 258 257 257 257 257 256 254 252 252 252 252 252
297 297 297 298 298 298 298 298 297 297 296 294 292 291 290 286 282 278 275 272 269 266 264 262 260 259 258 258 257 257 257 257 256 254 254 253 252 253
296 295 296 296 296 296 296 296 295 294 294 294 293 291 289 286 283 280 277 274 271 268 266 264 263 261 259 258 258 257 257 257 257 256 255 254 253 253
294 294 294 294 295 295 295 295 294 293 292 292 291 290 289 286 283 281 279 276 273 270 268 266 264 263 261 259 258 257 257 257 257 257 255 254 254 254
293 293 294 294 294 294 294 294 294 293 292 292 291 290 288 286 284 282 279 277 275 273 270 268 265 263 262 260 259 258 258 257 256 256 256 255 253 253
294 293 293 293 294 294 295 294 294 293 292 292 291 289 287 286 284 282 279 278 276 274 272 269 267 263 261 260 259 258 257 256 255 255 255 254 253 253
295 294 293 294 294 295 295 294 293 293 292 292 291 290 288 286 285 282 279 277 275 273 271 269 267 264 262 260 259 258 257 256 254 253 253 254 254 253
295 295 295 295 295 295 295 294 294 293 293 292 291 289 288 286 284 282 280 278 275 273 270 268 266 265 263 261 260 258 257 255 254 253 252 253 254 255
295 295 296 296 295 295 295 294 293 293 292 291 290 288 286 285 283 281 279 277 274 272 270 266 265 265 262 261 260 258 257 255 253 252 251 252 253 255
296 296 296 296 296 295 295 294 293 292 291 290 289 287 286 285 284 281 278 276 273 271 270 267 265 265 263 261 259 258 256 254 253 251 251 250 251 253
296 296 297 296 296 296 295 294 293 292 290 290 289 287 286 285 283 281 277 275 273 271 269 267 266 264 263 261 258 256 256 255 254 252 250 249 249 250
296 297 297 297 297 296 295 294 293 292 291 290 289 287 286 285 283 281 278 274 273 271 269 267 266 263 261 258 257 255 253 253 253 252 249 247 247 248
296 296 296 296 296 295 294 294 293 293 292 290 289 287 286 285 283 281 279 276 273 273 270 266 264 263 260 258 257 254 252 252 251 250 249 247 245 247
297 296 296 295 295 295 294 294 293 293 292 291 289 287 286 285 283 281 280 277 274 273 271 266 263 262 259 257 256 254 253 251 249 249 248 247 245 246